Simultaneous Nadir Overpasses (SNOs) Predictions

Prediction of SNOs between METOP-B and NOAA-19 Satellite Orbit:

Table of predicted SNOs for the next 14.0 days since TLE Epoch: 11/18/2017
Index Date (METOP-B) Time (METOP-B) Lat,Lon (METOP-B) SZA (METOP-B ) Date (NOAA-19) Time (NOAA-19) Lat,Lon (NOAA-19) SZA (NOAA-19 ) Distance(km) Time Diff (sec)
1 11/23/2017 09:58:12 77.76, 37.57 98.30 11/23/2017 09:57:06 77.73, 37.60 98.27 2.81 66
2 11/23/2017 10:48:54 -77.72,-155.27 81.74 11/23/2017 10:48:01 -77.74,-155.15 81.73 3.32 53
3 11/23/2017 11:39:34 77.74, 12.15 98.30 11/23/2017 11:39:07 77.72, 12.18 98.27 2.73 27
4 11/23/2017 12:30:16 -77.71, 179.31 81.74 11/23/2017 12:30:02 -77.72, 179.43 81.72 3.28 14
5 11/23/2017 13:20:56 77.73, -13.27 98.29 11/23/2017 13:21:08 77.70, -13.24 98.27 2.65 12
6 11/23/2017 14:11:38 -77.69, 153.90 81.75 11/23/2017 14:12:03 -77.71, 154.01 81.72 3.23 25
7 11/23/2017 15:02:18 77.71, -38.68 98.29 11/23/2017 15:03:09 77.69, -38.66 98.28 2.56 51
8 11/23/2017 15:53:00 -77.67, 128.48 81.75 11/23/2017 15:54:04 -77.69, 128.59 81.72 3.18 64




NCC Satellite Simultaneous Nadir Overpasses (SNOs) Prediction Service
